Location: Beaver Dam Church
(34.5318°N, 88.9828°W)
Time: 09:10:15
(UTC+00:00)

Cosmos 1812 Rocket - Pass Details

Date: 29 October 2020
Orbit: 605 x 633 km, 82.5° (Epoch: 25 November)

Event Time Altitude Azimuth Distance (km) Brightness Sun altitude
Rises 23:46:13 0° 158° (SSE) 2,892 6.9 -9.1°
Reaches altitude 10° 23:48:43 10° 146° (SE) 1,985 5.9 -9.6°
Maximum altitude 23:52:22 26° 90° (E) 1,222 4.5 -10.4°
Drops below altitude 10° 23:56:01 10° 33° (NNE) 1,982 5.8 -11.1°
Sets 23:58:30 0° 21° (NNE) 2,886 6.7 -11.6°
